Погода в Гюльшехире

Турция     38°44′25″N   34°36′58″E
темп.,
°C
ветер,
м/с
пор.,
м/с
влажн.,
%
обл.,
%
осадки,
мм/ч
давл.,
гПа
погр.,
м
15 августа, пн
пн1500:00+22ю00335 0.0 100211
03:00+22ююз22355 0.0 100311
06:00+20ю22410 0.0 100413
09:00+27ююз56260 0.0 1004725
12:00+32юз65220 0.0 10042159
15:00+34зюз76160 0.0 10022801
18:00+33зюз66100 0.0 10022240
21:00+23ююз11250 0.0 100511
16 августа, вт
вт1600:00+20з11460 0.0 100811
03:00+19сз11540 0.0 100911
06:00+18сз11630 0.0 101011
09:00+24ссз11440 0.0 1010492
12:00+30сз21280 0.0 10091861
15:00+33зсз33190 0.0 10072881
18:00+32ссз32180 0.0 10072194
21:00+25сз33280 0.0 100927
17 августа, ср
ср1700:00+22зсз22350 0.0 101012
03:00+20зсз12420 0.0 101011
06:00+18сз11600 0.0 101011
09:00+25ссв12480 0.0 1010475
12:00+31с32260 0.0 10082217
15:00+34сз43180 0.0 10063097
18:00+33сз43160 0.0 10052483
21:00+25с24300 0.0 100745
18 августа, чт
чт1800:00+22ю12360 0.0 100812
03:00+20сз22540 0.0 100918
06:00+18сз12800 0.0 100912
09:00+24ссв23560 0.0 1009597
12:00+31с44280 0.0 10071778
15:00+33с44194 0.0 10053406
18:00+32с761824 0.0 10052860
21:00+25ссв47320 0.0 1007153
19 августа, пт
пт1900:00+21св24560 0.0 100899
03:00+19сз22560 0.0 100921
06:00+17сз22610 0.0 101113
09:00+23ссв34410 0.0 1011697
12:00+28с44240 0.0 10091973
15:00+31с45170 0.0 10072641
18:00+30с66180 0.0 10072860
21:00+23с23310 0.0 100921